Погода в Оборе

Россия / Хабаровский край     48°05′39″N   135°41′15″E
темп.,
°C
ветер,
м/с
пор.,
м/с
влажн.,
%
обл.,
%
осадки,
мм/ч
давл.,
гПа
погр.,
м
8 марта, пн
пн801:00−12ююз3695100 0.2 1023190
04:00−13ююз389599 0.3 1023246
07:00−13ююз4994100 0.1 1025328
10:00−11юз5985100 0.1 1025532
13:00−6юз587378 0.0 1025736
16:00−5юз596843 0.0 1024846
19:00−8юз38870 0.0 1024202
22:00−9ю310900 0.0 1024250
9 марта, вт
вт901:00−8ю4128325 0.0 1022332
04:00−6ю6157363 0.0 1018423
07:00−5ю61671100 0.0 1014468
10:00−2ююз6146984 0.0 1011646
13:000ююз6118496 0.1 10071018
16:000юз6118498 2.6 10061127
19:00−3зюз31095100 0.4 1006421
22:00−4зюз41096100 1.4 1009502
10 марта, ср
ср1001:00−7з3893100 0.4 1011457
04:00−9юз1297100 1.2 101656
07:00−9ююз2296100 0.2 102059
10:00−6юз248999 0.3 1022318
13:00−3юз468297 0.1 1022593
16:00−3зюз487667 0.1 1022649
19:00−7ююз389262 0.0 1022235
22:00−6ююз388578 0.0 1023272
11 марта, чт
чт1101:00−6ю41084100 0.0 1022276
04:00−6ююз41183100 0.0 1021360
07:00−8ююз4108694 0.0 1020305
10:00−6юз598668 0.0 1021401
13:00−3зюз468293 0.0 1022621
16:00−2зюз347795 0.1 1023817
19:00−6ююз369066 0.0 1025123
22:00−8ююз369133 0.0 1027135
12 марта, пт
пт1201:00−9ююз37900 0.0 1028200
04:00−10ююз38910 0.0 1028200
07:00−11ююз49900 0.0 1030231
10:00−7юз48770 0.0 1030398
13:00−3юз47660 0.0 1030566
16:00−1юз48660 0.0 1028658
19:00−4ююз38860 0.0 1028215
22:00−5ю48891 0.0 1029206